Lid_Strength_Index
6 6 6 5 5 5 5 5 5 3 2 2 3 3 2 2 2 2 1 1 1 1 2 2 2 2 3 2 2 2 2 3 2 2 2 2 1 1 1 0 0 -0 -0
8 7 6 6 6 5 5 4 5 2 2 2 3 3 3 3 3 2 2 1 1 2 2 2 2 2 3 2 2 2 2 2 1 3 3 5 3 2 1 1 0 0 -0
8 7 6 6 6 5 5 3 2 2 2 2 3 4 4 4 4 4 3 2 2 2 2 2 3 3 2 2 2 1 2 3 2 2 3 6 6 4 3 2 1 0 1
8 6 7 6 6 6 3 2 2 2 2 3 4 3 4 5 5 5 4 3 2 2 2 2 2 1 2 2 2 2 2 2 3 2 2 3 3 5 6 2 1 1 1
8 8 8 7 7 4 3 2 2 3 3 4 4 5 5 5 5 4 4 3 2 1 2 1 1 2 2 2 2 2 2 2 3 2 2 2 2 3 4 6 4 2 1
9 8 8 7 5 3 3 3 3 4 4 4 4 5 5 5 5 5 4 3 2 2 1 1 2 2 2 2 2 2 2 2 2 2 2 2 3 4 4 5 4 4 2
10 9 8 5 4 4 4 4 4 5 4 4 4 5 5 5 5 4 3 3 3 3 2 2 2 2 2 1 2 2 2 2 2 2 2 2 2 2 2 3 4 4 3
10 9 9 5 4 4 4 4 5 5 5 5 5 5 5 4 3 3 3 3 3 3 2 2 1 2 1 1 1 2 2 2 2 2 2 2 2 1 1 3 4 5 4
9 9 8 5 4 4 5 5 5 5 5 5 5 4 4 3 3 3 3 3 2 2 2 2 2 1 1 1 1 2 2 1 1 1 1 1 1 1 1 2 2 3 6
9 9 5 5 4 4 5 5 5 5 5 4 4 3 3 3 3 2 2 2 2 1 1 2 1 1 1 1 1 1 1 1 1 1 1 2 2 1 1 1 2 1 3
7 6 5 4 4 4 4 5 5 4 4 4 3 3 3 2 2 2 2 2 2 1 1 1 1 1 1 1 1 1 1 1 2 1 2 2 1 1 1 2 2 2 2
7 5 5 5 4 4 4 4 4 4 4 4 3 3 3 3 3 2 2 2 2 1 1 1 1 1 1 1 1 2 1 1 2 2 2 2 1 1 1 1 2 2 1
7 5 5 5 5 4 4 4 4 4 4 4 3 3 3 3 2 2 2 2 2 2 1 1 1 1 1 1 1 1 1 1 1 1 2 1 2 2 2 1 2 1 1
7 6 5 5 5 4 4 4 4 4 4 2 3 3 3 3 2 2 2 2 2 2 2 1 1 1 1 1 1 1 1 1 2 1 1 1 1 2 2 2 2 1 2
7 6 6 5 5 4 4 3 3 3 3 3 3 3 3 2 2 2 2 1 1 1 1 1 1 1 1 2 1 1 1 1 2 1 1 1 2 2 2 1 1 2 2
7 6 5 5 5 4 4 3 3 3 3 3 3 2 3 2 2 2 2 2 2 2 1 2 2 2 3 9 7 3 1 1 2 2 2 2 3 3 4 4 4 2 2
6 6 5 5 4 4 3 4 4 3 3 3 2 2 2 2 2 2 3 3 3 2 2 2 3 3 3 10 9 7 2 2 2 2 2 2 2 2 1 5 5 5 5
6 5 5 4 4 3 3 4 4 3 3 3 2 2 2 2 2 3 3 3 3 3 3 3 3 3 4 10 9 8 2 2 1 1 2 3 3 3 2 2 2 2 1
5 5 4 4 3 4 4 4 4 4 3 3 3 2 2 2 2 3 3 3 3 3 4 3 4 3 3 10 10 5 1 1 2 2 2 3 3 9 8 2 2 3 4
4 4 4 4 4 4 4 5 4 3 3 3 2 2 2 2 2 3 3 3 2 3 3 4 4 6 2 10 10 4 2 2 3 3 4 8 6 11 9 3 3 4 4
4 4 4 4 4 5 5 5 4 4 3 2 2 2 2 2 2 3 3 3 2 2 3 4 3 2 4 7 10 8 2 2 3 4 4 6 11 11 10 7 3 4 3
4 4 4 5 5 5 4 5 4 3 2 2 2 2 2 2 3 3 3 3 2 3 3 4 3 2 3 8 10 10 7 5 2 3 4 7 12 11 10 8 11 10 6
4 4 4 6 5 5 4 5 3 3 2 2 2 3 2 2 3 3 3 3 3 3 3 3 3 3 3 4 11 11 10 8 3 3 7 12 12 12 10 11 10 8 4
5 4 6 6 6 5 4 3 4 2 2 3 3 3 2 3 3 2 2 2 3 3 3 3 4 3 3 3 4 5 5 8 7 8 8 8 8 8 8 6 5 3 3
4 4 5 5 6 5 5 4 3 2 3 3 3 2 3 3 3 3 3 3 2 3 2 3 2 3 3 3 6 5 4 4 6 5 4 4 4 5 4 3 3 3 3
4 4 5 5 5 5 5 5 3 2 3 3 3 3 3 3 3 4 5 12 11 9 8 8 4 2 7 10 10 11 10 11 10 4 4 4 4 4 3 3 3 3 4